St Lucie County International Airport Fort Pierce US
ICAO: KFPR
IATA: FPR
Category: Medium
Scheduled Services: No

Elevation: 24 ft
TransAlt. 18000 ft.

Airport Communications:
ATIS:134.825
MIAMI CNTR:132.25
CTAF:128.2
GND:119.55
MIAMI RDO:122.55
FORT PIERCE TWR:128.2

KFPR Zoom In..

Runways:

(A) RW 10L length 4000 ft width 75 ft
---- / hdg 97

(B) RW 10R length 6492 ft width 150 ft
ILS 110.55 / hdg 97

(C) RW 14 length 4755 ft width 100 ft
---- / hdg 142

(D) RW 28L length 6492 ft width 150 ft
---- / hdg 277

(E) RW 28R length 4000 ft width 75 ft
---- / hdg 277

(F) RW 32 length 4755 ft width 100 ft
---- / hdg 322

Location; KFPR
Day. 20 / Time. 09.53 Zulu
* Altimeter: 30.07
* Temperature: 18° c. 64.4°f.
* Wind from: 330° Speed 04 kn.
Dewpoint: 17° c.
Visibility: 10 Statute Miles.
Clouds: Clear (automated report).

KFPR 200953Z AUTO 33004KT 10SM CLR 18/17 A3007 RMK AO2 SLP182 T01780167


Wind From 330°
Speed 04 kn.

  YouTube Music Video
 
jpsmedia.com for Web Design  worldairports.se 2018   terms of use